Погода в Кызылорде

Хотите узнать прогноз погоды в Кызылорде? Тогда Вам сюда: Погода в Кызылорде

Поиск расширенной информации на нашем сайте:

Полезная информация:

Новости сайта



02.01.2020
Опубликован Долгосрочный прогноз погоды по городам России и ближнего зарубежья на январь 2020 года.
Карты: Прогноз на январь и февраль 2020 года, Сравнение прогнозируемой аномалии приземной температуры воздуха на январь 2020 года по разным моделям.




Погода в Кызылорде - сегодня

Время (UTC), дата Ветер
(°,м/с) 
Видим.   Явления Облачность Т
(°С)
Тd
(°С)
f(%) Тe
(°С)
Pmin
(гПа)
dP
(гПа)
Po
(мм)
O2
(г/м3)
Тmin Tmax R s Состояние
почвы
06 04.06.20 310 (СЗ) 20000 м    ясно 
+31.9 +8.7 24 +32  1002.9  0.9  741  266  +23.1         
09 04.06.20 340 (С) 20000 м    4/0 верхняя 
[Ci fib]
+37 +9.2 19 +37  1003.2  0.5  742  262           
12 04.06.20 360 (С) 20000 м    6/0 средняя, верхняя 
[Ac lent|Ci fib]
+38.4 +9.5 18 +39  1002.7  -0.4  741  260           
15 04.06.20 030 (СВ) 20000 м    8/5 1000 м кучево-дожд., средняя 
[Cb cap|Ac cuf]
+34.3 +11.2 25 +37  1003.9  742  264    +39       
18 04.06.20 050 (СВ) н/о    5/3 1000 м кучево-дожд., средняя 
[Cb cap|Ac cuf]
+30.4 +12.5 33 +35  1004.7  0.6  743  267    +39       
21 04.06.20 050 (СВ) н/о    8/5 600 м кучево-дожд., средняя 
[Cb cap|Ac cuf]
+26.3 +7.8 31 +26  1007.9  2.9  745  272           
00 05.06.20 060 (СВ) 20000 м  пыльный позёмок  3/3 1000 м кучево-дожд. 
[Cb cap]
+21.5 +4.6 33 +22  1009.8  1.6  746  278           
03 05.06.20 070 (В) 8{15}  20000 м  пыльный позёмок  4/0 средняя 
[Ac lent]
+22.4 +4.3 31 +22  1012  2.3  748  278           
06 05.06.20 050 (СВ) 7{16}  20000 м  пыльный позёмок  ясно 
+26.4 +4.1 24 +26  1013  1.2  749  274  +20.5         
09 05.06.20 040 (СВ) 5{15}  20000 м  пыльный позёмок  ясно 
+29.1 +5.5 22 +29  1012.9  749  272           
12 05.06.20 080 (В) 20000 м    ясно 
+30.3 +5.8 21 +30  1012.8  749  271           
15 05.06.20 060 (СВ) 20000 м    ясно 
+27.5 +5.9 25 +28  1013  749  273    +30.8       
18 05.06.20 070 (В) н/о    ясно 
+22.6 +4.6 31 +23  1014.7  1.5  750  278    +30.8       
21 05.06.20 050 (СВ) н/о    ясно 
+20.2 +4.6 36 +20  1015.2  0.4  750  281           
00 06.06.20 060 (СВ) 20000 м    ясно 
+17.6 +4 40 +18  1016.4  751  284           
03 06.06.20 080 (В) 20000 м    ясно 
+21.2 +2.5 29 +21  1017.2  752  281           
06 06.06.20 060 (СВ) 20000 м  пыльный позёмок  5/0 средняя 
[Ac cast]
+26.7 -0.5 17 +27  1017.4  0.4  752  276  +16.8         
09 06.06.20 050 (СВ) 7{16}  20000 м  пыльный позёмок  8/0 средняя, верхняя 
[Ac lent|Cc]
+29.1 -0.7 14 +29  1015.8  -1.4  751  273           
12 06.06.20 050 (СВ) 20000 м    8/6 1000 м кучево-дожд., средняя 
[Cb cap|Ac cuf]
+29 -0.5 15 +29  1015.4  -0.4  751  273           
15 06.06.20 060 (СВ) 20000 м    8/3 1000 м кучево-дожд., средняя, верхняя 
[Cb calv|Ac lent|Ci]
+27.3 +0.9 18 +27  1014.2  -1.3  750  274    +30.6       
18 06.06.20 060 (СВ) н/о    6/0 средняя 
[Ac cast]
+22.9 +1.9 25 +23  1015.1  0.7  750  279    +30.6       
21 06.06.20 050 (СВ) н/о    6/0 средняя 
[Ac cast]
+19.6 +3.2 34 +20  1014.9  -0.4  750  281           
00 07.06.20 040 (СВ) 20000 м    8/0 средняя, верхняя 
[Ac cast|Ci fib]
+18.1 +4.5 41 +19  1014.8  -0.2  750  283           
03 07.06.20 040 (СВ) 20000 м    6/0 средняя 
[Ac cast]
+22.3 +3 28 +22  1015.5  750  279           
06 07.06.20 060 (СВ) 20000 м    6/0 средняя, верхняя 
[Ac cast|Cc]
+27.7 +1.5 18 +28  1015.1  -0.2  750  274  +17.1         
Время (UTC), дата Ветер
(°,м/с) 
Видим.   Явления Облачность Т
(°С)
Тd
(°С)
f(%) Тe
(°С)
Pmin
(гПа)
dP
(гПа)
Po
(мм)
O2
(г/м3)
Тmin Tmax R s Состояние
почвы

Для получения пояснительной информации подведите курсор к названию столбца.

ПОГОДА в Кызылорде - архив

Всё, что Вы хотите узнать о погоде в Кызылорде - удобно и подробно!

Выберите нужную дату (начиная с 1 января 2019* года) и нажмите кнопку "Найти".
Будут отображены архивные сводки погоды по пункту Кызылорда, начиная с указанной даты.


Отображать данные в формате CSV (для использования в таблицах Excel)


Внимание! Наш архив погоды предназначен исключительно для личного некоммерческого использования в познавательных целях. Если Вам необходимы официальные справки о состоянии погоды (для производственных, юридических, коммерческих и т.п. целей), обращайтесь в органы Росгидромета.

*Примечание: данная дата относится к архиву по метеостанциям СССР (Россия, СНГ, Балтия).
Архив по метеостанциям Зарубежной Европы и Азии (кроме Китая) хранится 10 дней, по другим регионам земного шара (Китай, Африка, Америка, Австралия, Океания) - 1 день.

Кызылорда - район местоположения метеостанции


Название, широта, долгота, высота метеостанции:
Кызылорда (город) 44.8°ш. 65.5°д. 130 м над ур. моря [Казахстан]

Дополнительная информация

В oтличие oт бoльшинства пoгoдных сайтoв мы публикуем пoдрoбную метеoинфoрмацию в детальнoм прoфессиoнальнoм фoрмате.

Характеристики температуры и влажнoсти вoздуха измеряются на высoте 2 м в тени вдали oт зданий и деревьев.
Скoрoсть ветра измеряется на высoте 10 м (на урoвне рoста челoвека скoрoсть ветра ниже в 1.5-2 раза). Если метеoстанция нахoдится в гoрoде или в лесу, тo скoрoсть ветра занижена на 2-4 м/с пo сравнению с oткрытым местoм. Скoрoсть ветра над акватoриями крупных рек и oзёр, а также на вершинах хoлмoв на 2-5 м/с выше, чем в oбычных услoвиях.
Атмoсфернoе давление в разных тoчках местнoсти мoжет значительнo oтличаться oт давления на метеoстанции, в зависимoсти oт услoвий рельефа (при пoдъёме на 10 м давление пoнижается примернo на 1 мм рт.ст.).